Flag for Germany Weather past 2 weeks in Neustrelitz, Mecklenburg-Western Pomerania, Germany

Now
63 °F

Sunny.


Feels Like: 63 °F
Forecast: 43 / 56 °F
Wind: 8 mph from South

Location: Neuruppin

Current Time: May 6, 2015 at 1:34:15 PM

Latest Report: May 6, 2015 at 1:00 PM


Visibility: 6 mi

Pressure: 29.88 "Hg

Humidity: 57%

Dew point: 47 °F

Location of NeustrelitzLocation

Historic Weather in Neustrelitz — Graph

°F

Neustrelitz temperature yesterday

Maximum temperature yesterday: 70 °F (at 6:00 PM)
Minimum temperature yesterday: 55 °F (at 3:00 AM)
Average temperature yesterday: 62 °F

Past Weeks' High & Low Weather Summary

 TemperatureHumidityPressure
High70 °F (May 5, 6:00 PM)99% (Apr 24, 7:00 AM)30.30 "Hg (Apr 24, 7:00 AM)
Low34 °F (Apr 29, 6:00 AM)22% (Apr 21, 1:00 PM)29.57 "Hg (May 5, 7:00 PM)
Average52 °F73%29.89 "Hg
* Reported Apr 21 12:00 Noon — May 6 12:00 Noon, Neustrelitz, Weather by CustomWeather, © 2015

Note: Actual official high and low records may vary slightly from our data, if they occured in-between our weather recording intervals... More about our weather records

Advertising

Neustrelitz weather history for previous 24 hours

 ConditionsComfort  
Time TempWeatherWind HumidityBarometerVisibility
12:00 PM
Wed, May 6
61 °FPartly sunny.7 mph57%29.89 "Hg6 mi
11:00 AM61 °FPassing clouds.8 mph56%29.89 "Hg6 mi
10:00 AM58 °FOvercast.7 mph68%29.90 "Hg6 mi
9:00 AM55 °FOvercast.5 mph76%29.91 "Hg6 mi
8:00 AM53 °FOvercast.2 mph82%29.90 "Hg6 mi
7:00 AM49 °FPassing clouds.2 mph86%29.90 "Hg6 mi
6:00 AM46 °FScattered clouds.2 mph96%29.90 "Hg6 mi
4:00 AM47 °FClear.1 mph96%29.88 "Hg6 mi
3:00 AM51 °FClear.1 mph91%29.88 "Hg6 mi
2:00 AM53 °FClear.1 mph87%29.86 "Hg6 mi
1:00 AM54 °FClear.2 mph82%29.85 "Hg6 mi
12:00 AM57 °FPassing clouds.3 mph80%29.81 "Hg6 mi
11:00 PM
Tue, May 5
59 °FOvercast.3 mph85%29.78 "Hg6 mi
10:00 PM60 °FOvercast.2 mph90%29.73 "Hg6 mi
9:00 PM61 °FOvercast.5 mph89%29.69 "Hg6 mi
8:00 PM69 °FPassing clouds.7 mph74%29.59 "Hg6 mi
7:00 PM70 °FSunny.8 mph69%29.57 "Hg6 mi
6:00 PM70 °FPassing clouds.7 mph67%29.59 "Hg6 mi
5:00 PM68 °FPassing clouds.6 mph74%29.60 "Hg6 mi
4:00 PM67 °FOvercast.6 mph75%29.61 "Hg6 mi
3:00 PM66 °FPartly sunny.5 mph81%29.63 "Hg6 mi
2:00 PM64 °FOvercast.3 mph84%29.65 "Hg6 mi
1:00 PM64 °FOvercast.3 mph81%29.63 "Hg6 mi
Weather by CustomWeather, © 2015

See weather overviewHow to use our weather pages